Regional Weather Roundup
Issued by NWS

Home | Current Version | Previous Version | Graphics & Text | Print | Product List | Glossary On
Versions: 1 2 3 4 5 6 7 8 9 10 11 12 13 14 15 16 17 18 19 20 21 22 23 24 25 26 27 28 29 30 31 32 33 34 35 36 37 38 39 40 41 42 43 44 45 46 47 48 49 50
000
ASUS43 KIND 231509
RWRIN

WEATHER ROUNDUP FOR INDIANA
NATIONAL WEATHER SERVICE INDIANAPOLIS IN
1100 AM EDT FRI JUN 23 2017

NOTE: "FAIR" INDICATES FEW OR NO CLOUDS BELOW 12,000 FEET WITH NO
SIGNIFICANT WEATHER AND/OR OBSTRUCTIONS TO VISIBILITY.

* - STATION DOES NOT REPORT WEATHER SUCH AS PRECIPITATION OR FOG.

+ - STATION NOT QUALITY CONTROLLED BY THE NATIONAL WEATHER SERVICE.
    USE DATA WITH CAUTION...ESPECIALLY DEWPOINT AND RELATIVE
    HUMIDITY OBSERVATIONS.

INZ001>003-010>013-019-020-231600-
NORTHWEST INDIANA

CITY           SKY/WX    TMP DP  RH WIND       PRES   REMARKS
GARY /AIRPORT/ CLOUDY    68  64  88 N7        29.69F
KNOX *+        CLOUDY    66  66 100 NW9       29.68F
LA PORTE +     CLOUDY    66  65  96 N12       29.69F FOG
MICHIGAN CITY+ CLOUDY    66  66 100 N6        29.69F
MONTICELLO +   CLOUDY    72  68  88 NW10      29.67F
RENSSELAER +   LGT RAIN  68  64  88 CALM      29.66F
VALPARAISO     CLOUDY    69  66  90 NW8       29.68F

$$

LMZ046-743>745-231600-
SOUTHERN LAKE MICHIGAN

STATION/POSITION TIME  TEMP    WIND        PRES    WAVE
                       AIR SEA DIR/SP/G            HT
                 (UTC) (F)     (DEG/KT/KT) (MB)    (FT)
BURNS HARBOR     1440   65      20/  6/ 10 1006.4S
MICHIGAN CITY    1440   66     340/  9/ 10   N/A
5NW MICH CITY    1500   67 68   40/  4/  6   N/A     2

$$

INZ004-005-014>016-021>024-231600-
NORTH CENTRAL INDIANA

CITY           SKY/WX    TMP DP  RH WIND       PRES   REMARKS
ELKHART        CLOUDY    70  66  88 W12       29.67R
GOSHEN         CLOUDY    73  66  78 W15       29.66R
LOGANSPORT +   LGT RAIN  72  66  83 NW7       29.69S
PERU/GRISSOM   PTSUNNY   71  70  96 W7        29.67S
ROCHESTER +    CLOUDY    75  68  78 NW3       29.66F
SOUTH BEND     LGT RAIN  66  66 100 NW12      29.68S FOG
WARSAW +       CLOUDY    72  66  83 W9        29.66S

$$

INZ006>009-017-018-025>027-231600-
NORTHEAST INDIANA

CITY           SKY/WX    TMP DP  RH WIND       PRES   REMARKS
AUBURN +       MOSUNNY   73  66  78 CALM      29.63F
FORT WAYNE     CLOUDY    75  66  73 NW8       29.64F
HUNTINGTON +   CLOUDY    69  68  96 W5        29.66S
KENDALLVILLE + PTSUNNY  N/A N/A N/A W12       29.65S

$$

INZ028-029-035-036-043>045-051>053-231600-
WEST CENTRAL INDIANA

CITY           SKY/WX    TMP DP  RH WIND       PRES   REMARKS
CRAWFORDSVL +  CLOUDY    67  67 100 NW6       29.72R
GREENCASTLE +  CLOUDY    73  73 100 S7        29.72S
LAFAYETTE      LGT RAIN  70  68  93 CALM      29.67F
TERRE HAUTE    CLOUDY    77  73  87 SW9       29.71R

$$

INZ030>032-037>040-046>048-054>057-064-065-231600-
CENTRAL INDIANA

CITY           SKY/WX    TMP DP  RH WIND       PRES   REMARKS
ANDERSON       PTSUNNY   75  70  83 SW9       29.71
CP ATTERBURY + LGT RAIN  73  72  94 SW18      29.73F
COLUMBUS       LGT RAIN  73  72  94 SW17      29.74S FOG
FRANKFORT +    RAIN      71  68  92 CALM      29.72S
GREENWOOD *+   CLOUDY    74  73  96 SW9       29.72F
INDIANAPOLIS   RAIN      73  71  93 W10       29.71S FOG
-EAGLE CREEK   LGT RAIN  74  71  91 SW14G22   29.69S
KOKOMO +       CLOUDY    71  67  87 NW3       29.70R
MARION +       CLOUDY    68  66  94 CALM      29.69F
MT COMFORT *+  CLOUDY    72  72 100 SW12      29.71S VSB 1/2
SHELBYVILLE    HVY RAIN  76  72  87 SW15      29.71F FOG
ZIONSVILLE +   LGT RAIN  69  66  90 NW12G17   29.73R

$$

INZ033-034-041-042-049-050-058-059-231600-
EAST CENTRAL INDIANA

CITY           SKY/WX    TMP DP  RH WIND       PRES   REMARKS
MUNCIE         RAIN      70  67  90 CALM      29.73R VSB 3/4
RICHMOND +     LGT RAIN  72  72 100 SW15      29.75S

$$

INZ060-061-067>069-081>083-085>088-231600-
SOUTHWEST INDIANA

CITY           SKY/WX    TMP DP  RH WIND       PRES   REMARKS
EVANSVILLE     CLOUDY    76  72  87 S9        29.74F FOG
HUNTINGBURG *+ LGT RAIN  75  73  93 S8        29.75F
WASHINGTON +   RAIN      73  71  93 S12G18    29.74F

$$

INZ062-063-066-070>080-084-089>092-231600-
SOUTH CENTRAL AND SOUTHEAST INDIANA

CITY           SKY/WX    TMP DP  RH WIND       PRES   REMARKS
BEDFORD +      CLOUDY    73  70  88 SW14      29.76S
BLOOMINGTON    RAIN      74  70  87 SW15      29.74F FOG
MADISON *+     PTSUNNY   79  72  78 SW15G21   29.79F
NORTH VERNON + RAIN      73  70  88 SW16G28   29.77R
SEYMOUR +      LGT RAIN  75  73  94 SW7       29.76S

$$





USA.gov is the U.S. government's official web portal to all federal, state and local government web resources and services.